This is the latest recevied weather packets stored in our database for station/object KC4BAM. If no packets are shown the sender has not sent any weather packets the latest 1 day(s).
| Time | Temp. | Humidity | Pressure | Rain* | Wind** | Luminosity | Snow |
|---|---|---|---|---|---|---|---|
| 1836274766 | 20.56° C | 90% | 1007.6 hPa | 0 mm | 0 m/s | 0 W/m² | - |
| 1836274464 | 20.56° C | 90% | 1007.5 hPa | 0 mm | 0 m/s | 0 W/m² | - |
| 1836274318 | 20.56° C | 91% | 1007.8 hPa | 0 mm | 0 m/s | 0 W/m² | - |
| 1836274163 | 20° C | 90% | 1007.5 hPa | 0 mm | 0 m/s | 0 W/m² | - |
| 1778057350 | 10.56° C | 96% | 1000.5 hPa | 0 mm | 0.45 m/s, 210° | 0 W/m² | - |
| 1778057047 | 10.56° C | 96% | 1000.4 hPa | 0 mm | 0 m/s | 0 W/m² | - |
| 1778056743 | 10.56° C | 96% | 1000.6 hPa | 0 mm | 0.45 m/s, 185° | 0 W/m² | - |
| 1778056441 | 10.56° C | 96% | 1000.6 hPa | 0 mm | 0 m/s | 0 W/m² | - |
| 1778056138 | 10.56° C | 96% | 1000 hPa | 0 mm | 0 m/s | 0 W/m² | - |
| 1778055835 | 10.56° C | 96% | 1000.2 hPa | 0 mm | 0 m/s | 0 W/m² | - |
| 1778055531 | 10.56° C | 96% | 999.9 hPa | 0 mm | 0.45 m/s, 185° | 0 W/m² | - |
| 1778055229 | 11.11° C | 96% | 1000.5 hPa | 1.27 mm | 0.89 m/s, 203° | 0 W/m² | - |
| 1778054926 | 11.11° C | 96% | 1000.2 hPa | 4.83 mm | 0.45 m/s, 200° | 0 W/m² | - |
| 1778054623 | 11.11° C | 96% | 1000.1 hPa | 4.83 mm | 0 m/s | 0 W/m² | - |
| 1778054321 | 11.11° C | 96% | 999.9 hPa | 3.05 mm | 0 m/s | 0 W/m² | - |
| 1778054018 | 11.11° C | 96% | 999.4 hPa | 0 mm | 0.45 m/s, 212° | 0 W/m² | - |
| 1778053715 | 11.67° C | 95% | 999 hPa | 0 mm | 0 m/s | 0 W/m² | - |
| 1778053412 | 11.67° C | 95% | 999.1 hPa | 0 mm | 0.45 m/s, 190° | 0 W/m² | - |
| 1778053110 | 11.67° C | 95% | 999.1 hPa | 0 mm | 0.45 m/s, 185° | 0 W/m² | - |
| 1778052807 | 11.67° C | 95% | 999 hPa | 1.27 mm | 0.45 m/s, 194° | 0 W/m² | - |
| 1778052504 | 11.67° C | 95% | 999 hPa | 1.27 mm | 0.45 m/s, 204° | 0 W/m² | - |
| 1778052201 | 11.67° C | 95% | 999.6 hPa | 0 mm | 0.45 m/s, 217° | 0 W/m² | - |
| 1778051899 | 11.67° C | 95% | 998.8 hPa | 0 mm | 0.45 m/s, 200° | 0 W/m² | - |
| 1778051597 | 11.67° C | 95% | 998.5 hPa | 0 mm | 0.45 m/s, 211° | 0 W/m² | - |
| 1778051294 | 11.67° C | 95% | 998.8 hPa | 0 mm | 0.45 m/s, 240° | 0 W/m² | - |
* Rain latest hour (hover to see other rain measurements)
** Current wind speed in m/s (hover to see current wind gust speed)